[[{"header":{"parameterUnit":"m.s-1","parameterCategory":1,"la1":30.2991,"la2":30.254,"lo1":-89.0895,"lo2":-89.0444,"dy":0.0017,"dx":0.0017,"nx":28,"ny":28,"refTime":"2025-03-19T21:00:00:Z","depth":0,"parameterNumber":2,"parameterNumberName":"U-component_of_WINDS"},"data":[0,0,0,0,0,0,0,0,0,0,0,0,0,0,0,0,0,0,0,0,0,0,0,0,0,0,0,0,0,0,0,0,0,0,0,0,0,0,0,0,0,0,0,0,0,0,0,0,0,0,0,0,0,0,0,0,0,0,-0.436,-0.4362,0,-0.4487,-0.4488,-0.4489,-0.4574,-0.4575,-0.4576,-0.4576,-0.4702,-0.4705,-0.4708,0,0,0,0,0,0,0,0,0,0,0,0,0,-0.419,-0.4192,-0.436,-0.4362,-0.4363,-0.4486,-0.4488,-0.449,-0.4574,-0.4575,-0.4576,-0.4576,-0.4702,-0.4705,-0.4708,0,0,0,0,0,0,0,0,0,0,0,0,0,-0.4285,-0.4193,-0.436,-0.442,-0.4427,-0.4486,-0.4488,-0.449,-0.4574,-0.4575,-0.4576,-0.4577,-0.47,-0.4705,-0.4709,-0.4716,0,0,-0.4721,-0.4723,0,0,0,0,0,0,0,0,-0.4279,-0.4291,-0.441,-0.4416,-0.4424,-0.4516,-0.4474,-0.4566,-0.4574,-0.4518,-0.4576,-0.4577,-0.4639,-0.4649,-0.467,-0.4722,-0.4728,-0.4722,-0.4724,-0.4726,-0.4727,0,0,0,0,0,0,0,-0.4272,-0.4286,-0.441,-0.4411,-0.442,-0.444,-0.4455,-0.4492,-0.4572,-0.4523,-0.453,-0.4544,-0.4643,-0.4666,-0.4674,-0.473,-0.4722,-0.4725,-0.4728,-0.473,-0.4794,-0.4794,0,0,0,0,0,0,-0.4257,-0.428,-0.4406,-0.4414,-0.4352,-0.4443,-0.4459,-0.4485,-0.4572,-0.4586,-0.4543,-0.4547,-0.4658,-0.4669,-0.4679,-0.4693,-0.4726,-0.473,-0.4733,-0.4795,-0.4794,-0.4793,0,0,0,0,0,0,-0.4253,-0.4267,-0.4401,-0.4349,-0.4367,-0.4445,-0.4474,-0.4487,-0.451,-0.4587,-0.4601,-0.4551,-0.466,-0.4673,-0.4707,-0.4699,-0.4732,-0.4736,-0.4796,-0.4795,-0.4794,-0.4722,0,0,0,0,0,0,-0.4247,-0.4265,-0.4269,-0.4348,-0.437,-0.4427,-0.4473,-0.4489,-0.4517,-0.4524,-0.4599,-0.4612,-0.4661,-0.47,-0.4711,-0.4705,-0.4739,-0.4797,-0.4796,-0.4794,-0.4726,-0.4719,-0.4713,0,0,0,0,0,-0.4241,-0.4244,-0.4269,-0.4284,-0.4377,-0.4427,-0.4439,-0.4497,-0.4516,-0.4521,-0.457,-0.4609,-0.4698,-0.4703,-0.4716,-0.4711,-0.4798,-0.4796,-0.4794,-0.4728,-0.472,-0.4713,0,0,0,0,0,0,-0.4161,-0.4255,-0.4284,-0.4313,-0.4361,-0.4441,-0.4448,-0.4486,-0.4529,-0.4534,-0.4603,-0.4619,-0.4645,-0.4682,-0.4685,-0.4723,-0.4753,-0.4753,-0.4698,-0.4691,-0.4685,-0.4675,-0.4743,0,0,0,0,0,-0.4147,-0.418,-0.426,-0.4277,-0.43,-0.437,-0.4394,-0.4434,-0.4487,-0.4508,-0.4559,-0.4608,-0.4647,-0.4671,-0.4711,-0.4732,-0.4749,-0.4735,-0.4729,-0.4723,-0.4722,-0.4736,-0.473,-0.4787,-0.4787,-0.4787,0,0,-0.4117,-0.4173,-0.4189,-0.4263,-0.4305,-0.4337,-0.4387,-0.4419,-0.4443,-0.4512,-0.4548,-0.4587,-0.4646,-0.4673,-0.4688,-0.4704,-0.4711,-0.4721,-0.4716,-0.4718,-0.4733,-0.4728,-0.4723,-0.4786,-0.4786,-0.4787,0,0,-0.408,-0.4126,-0.4145,-0.4187,-0.425,-0.4297,-0.4301,-0.4376,-0.4405,-0.4442,-0.4495,-0.4524,-0.459,-0.463,-0.4659,-0.4637,-0.4674,-0.4648,-0.4614,-0.4626,-0.4622,-0.4618,-0.461,-0.4606,-0.4648,-0.4648,-0.4647,0,-0.4035,-0.4086,-0.415,-0.4179,-0.4209,-0.4275,-0.4294,-0.4332,-0.4404,-0.4424,-0.4442,-0.4526,-0.457,-0.4607,-0.4602,-0.4624,-0.463,-0.464,-0.4618,-0.4615,-0.4612,-0.4605,-0.4602,-0.4644,-0.4644,-0.4645,-0.4645,0,-0.4028,-0.4063,-0.407,-0.414,-0.4172,-0.4196,-0.4262,-0.4286,-0.4324,-0.4368,-0.4405,-0.4461,-0.4513,-0.4525,-0.4562,-0.4568,-0.4576,-0.4605,-0.4636,-0.4602,-0.4596,-0.4594,-0.4639,-0.464,-0.4641,-0.4642,0,0,-0.3942,-0.4048,-0.4049,-0.4082,-0.4158,-0.4185,-0.4212,-0.4265,-0.4284,-0.4332,-0.4356,-0.4411,-0.4438,-0.4471,-0.4513,-0.4524,-0.4502,-0.4552,-0.4554,-0.454,-0.4511,-0.4488,-0.4484,-0.4528,-0.4528,-0.4528,-0.4506,0,-0.3916,-0.3968,-0.4026,-0.4058,-0.4091,-0.4154,-0.4178,-0.4226,-0.4268,-0.4302,-0.4348,-0.4385,-0.4419,-0.4439,-0.4453,-0.4502,-0.4497,-0.4504,-0.455,-0.4551,-0.4532,-0.4481,-0.4457,-0.4433,-0.4504,-0.4504,-0.4504,0,-0.3892,-0.3938,-0.3973,-0.4046,-0.4062,-0.4082,-0.4135,-0.4167,-0.4223,-0.4253,-0.4289,-0.4335,-0.4365,-0.4393,-0.4436,-0.444,-0.4462,-0.4489,-0.4489,-0.4495,-0.4524,-0.4484,-0.4427,-0.4423,-0.4501,-0.4501,-0.4501,0,-0.3824,-0.3896,-0.3926,-0.3952,-0.4038,-0.4051,-0.4087,-0.4145,-0.4172,-0.4218,-0.4237,-0.4285,-0.4311,-0.4348,-0.4404,-0.442,-0.4441,-0.4474,-0.4466,-0.4464,-0.4467,-0.4465,-0.4412,-0.4482,-0.4482,-0.4482,-0.4482,0,-0.3788,-0.3807,-0.3898,-0.3916,-0.3939,-0.4006,-0.4026,-0.4068,-0.4119,-0.4146,-0.4203,-0.4227,-0.4302,-0.4334,-0.4379,-0.4408,-0.4419,-0.4443,-0.4455,-0.4438,-0.4434,-0.4452,-0.4455,-0.4482,-0.4482,-0.4482,-0.4482,0,-0.3717,-0.3778,-0.3815,-0.3894,-0.3914,-0.3928,-0.3995,-0.4015,-0.4061,-0.4095,-0.4106,-0.4178,-0.422,-0.4281,-0.434,-0.437,-0.4392,-0.4411,-0.4373,-0.4379,-0.4368,-0.4367,-0.4323,-0.432,-0.4392,-0.4392,-0.4391,0,-0.3689,-0.3705,-0.3786,-0.3809,-0.3843,-0.3879,-0.3909,-0.3975,-0.4002,-0.4068,-0.408,-0.4126,-0.4167,-0.423,-0.4287,-0.4333,-0.4353,-0.4334,-0.436,-0.4342,-0.4352,-0.4349,-0.4351,-0.4327,-0.4326,-0.4325,-0.4324,0,-0.3633,-0.3663,-0.3703,-0.3753,-0.3787,-0.3829,-0.3875,-0.389,-0.3966,-0.3994,-0.4038,-0.4069,-0.4131,-0.4176,-0.423,-0.4266,-0.4307,-0.4316,-0.4317,-0.4298,-0.4275,-0.4287,-0.4355,-0.4316,-0.4317,-0.4318,-0.4318,-0.4319,-0.3582,-0.3599,-0.3659,-0.3702,-0.3743,-0.3784,-0.3807,-0.3856,-0.3894,-0.395,-0.3987,-0.4029,-0.4085,-0.4161,-0.4196,-0.4229,-0.4246,-0.4247,-0.4247,-0.4246,-0.424,-0.4271,-0.4239,-0.424,-0.424,-0.424,-0.424,0,-0.3528,-0.357,-0.3609,-0.3671,-0.3704,-0.3742,-0.3794,-0.3819,-0.3856,-0.3905,-0.3944,-0.3994,-0.4038,-0.4099,-0.4147,-0.4162,-0.4182,-0.4172,-0.4171,-0.4179,-0.4222,-0.4216,-0.4155,-0.4155,-0.4155,-0.4155,-0.4155,-0.4155,-0.3504,-0.3535,-0.3572,-0.3624,-0.3666,-0.3708,-0.3734,-0.3772,-0.3812,-0.3866,-0.3903,-0.3943,-0.3997,-0.405,-0.4091,-0.4108,-0.4123,-0.4107,-0.4129,-0.4168,-0.4176,-0.4183,-0.4178,-0.411,-0.411,-0.4083,-0.4083,-0.4083]},{"header":{"parameterUnit":"m.s-1","parameterCategory":1,"la1":30.2991,"la2":30.254,"lo1":-89.0895,"lo2":-89.0444,"dy":0.0017,"dx":0.0017,"nx":28,"ny":28,"refTime":"2025-03-19T21:00:00:Z","depth":0,"parameterNumber":3,"parameterNumberName":"V-component_of_WINDS"},"data":[0,0,0,0,0,0,0,0,0,0,0,0,0,0,0,0,0,0,0,0,0,0,0,0,0,0,0,0,0,0,0,0,0,0,0,0,0,0,0,0,0,0,0,0,0,0,0,0,0,0,0,0,0,0,0,0,0,0,5.967,5.967,0,5.9647,5.9646,5.9646,5.9585,5.9584,5.9582,5.9581,5.9559,5.956,5.956,0,0,0,0,0,0,0,0,0,0,0,0,0,5.9663,5.9664,5.967,5.967,5.9669,5.9647,5.9646,5.9646,5.9585,5.9584,5.9582,5.958,5.9559,5.9559,5.956,0,0,0,0,0,0,0,0,0,0,0,0,0,5.9656,5.9664,5.967,5.9636,5.9633,5.9647,5.9646,5.9646,5.9585,5.9584,5.9582,5.958,5.9558,5.9559,5.956,5.9606,0,0,5.9563,5.9564,0,0,0,0,0,0,0,0,5.9656,5.9656,5.9642,5.9639,5.9635,5.9617,5.9636,5.9633,5.9586,5.9604,5.9581,5.9579,5.958,5.9579,5.9579,5.9605,5.9604,5.9563,5.9564,5.9564,5.9565,0,0,0,0,0,0,0,5.9657,5.9657,5.9661,5.9641,5.9637,5.9623,5.9619,5.9635,5.9603,5.9602,5.9597,5.9595,5.9578,5.9578,5.9578,5.9603,5.9563,5.9564,5.9565,5.9565,5.9665,5.9667,0,0,0,0,0,0,5.9662,5.9658,5.9662,5.966,5.9641,5.9624,5.9621,5.9625,5.9603,5.9597,5.9597,5.9593,5.9577,5.9577,5.9577,5.9628,5.9564,5.9565,5.9566,5.9662,5.9665,5.9667,0,0,0,0,0,0,5.9662,5.9663,5.9662,5.9658,5.9656,5.9627,5.9631,5.9625,5.9625,5.9599,5.9593,5.9603,5.9576,5.9576,5.9599,5.9626,5.9566,5.9566,5.966,5.9663,5.9666,5.9731,0,0,0,0,0,0,5.9662,5.9663,5.968,5.9658,5.9657,5.9684,5.9633,5.9626,5.9627,5.9621,5.9603,5.9599,5.9574,5.9598,5.96,5.9627,5.9567,5.9657,5.9661,5.9665,5.9726,5.9736,5.9744,0,0,0,0,0,5.9662,5.97,5.9681,5.9682,5.9677,5.9686,5.9685,5.9656,5.963,5.9646,5.9629,5.9599,5.9623,5.9601,5.9602,5.963,5.9656,5.966,5.9665,5.9722,5.9734,5.9744,0,0,0,0,0,0,5.9726,5.9696,5.9675,5.9707,5.9699,5.9676,5.9696,5.967,5.967,5.9665,5.9629,5.9625,5.9654,5.9644,5.9619,5.9673,5.9634,5.964,5.9678,5.9689,5.9697,5.9699,5.9568,0,0,0,0,0,5.9743,5.9753,5.9727,5.9757,5.9754,5.9726,5.9729,5.9707,5.9698,5.9695,5.9679,5.9673,5.9678,5.9683,5.9687,5.9725,5.972,5.9745,5.9754,5.9761,5.9766,5.9785,5.9796,5.9683,5.9683,5.9682,0,0,5.978,5.9765,5.9773,5.977,5.9761,5.9772,5.9724,5.9737,5.9745,5.9697,5.9718,5.9706,5.9696,5.9727,5.974,5.972,5.9797,5.9767,5.9774,5.9774,5.9791,5.9802,5.9812,5.9686,5.9685,5.9685,0,0,5.9852,5.9842,5.9866,5.9859,5.9846,5.9827,5.9833,5.9813,5.9804,5.9824,5.9787,5.9797,5.9808,5.9802,5.98,5.987,5.9843,5.9873,5.992,5.9939,5.9948,5.9956,5.998,5.999,5.9878,5.9878,5.9878,0,5.99,5.9914,5.9882,5.9898,5.9897,5.9853,5.9877,5.9872,5.9862,5.9863,5.9841,5.9853,5.9843,5.9872,5.9889,5.9889,5.9895,5.9874,5.9949,5.9957,5.9963,5.9987,5.9996,5.9882,5.9881,5.9881,5.988,0,5.9973,5.9984,6.0004,5.9995,5.9997,6.0017,5.9988,5.9994,5.9972,5.9955,5.9976,5.9963,5.9963,5.9968,5.9948,5.9994,5.9982,5.9955,5.9916,5.9978,6.0,6.0008,5.9887,5.9886,5.9884,5.9884,0,0,6.0085,6.0057,6.0065,6.006,6.0043,6.0051,6.0069,6.0069,6.0075,6.007,6.0084,6.0094,6.0069,6.0067,6.0045,6.0062,6.0118,6.0033,6.0032,6.0049,6.0169,6.0189,6.02,6.01,6.0102,6.0103,6.017,0,6.0152,6.0181,6.0152,6.0187,6.0197,6.0155,6.0171,6.0163,6.0148,6.0154,6.0138,6.0145,6.0112,6.011,6.0125,6.0109,6.0142,6.0103,6.0114,6.0114,6.0117,6.0211,6.0233,6.0296,6.0178,6.0179,6.018,0,6.0235,6.0233,6.0269,6.0249,6.0252,6.0267,6.0264,6.0271,6.0261,6.0248,6.0247,6.022,6.0237,6.0199,6.0222,6.0196,6.0199,6.0191,6.0193,6.0193,6.0151,6.0213,6.0316,6.0326,6.0193,6.0192,6.0191,0,6.0313,6.0319,6.0341,6.0338,6.0316,6.0327,6.0319,6.0307,6.0308,6.0306,6.0307,6.0307,6.0308,6.0309,6.0283,6.0258,6.0309,6.0269,6.03,6.0301,6.0313,6.0312,6.0417,6.0315,6.0315,6.0315,6.0314,0,6.0391,6.0415,6.0375,6.0389,6.0414,6.0381,6.0407,6.0394,6.0384,6.0394,6.0359,6.037,6.0335,6.0342,6.0322,6.0344,6.0345,6.0336,6.033,6.0339,6.034,6.034,6.0335,6.0317,6.0316,6.0316,6.0316,0,6.0482,6.0457,6.0478,6.0455,6.045,6.0469,6.045,6.0462,6.0444,6.0458,6.046,6.0433,6.044,6.0414,6.0417,6.0403,6.0436,6.0423,6.0439,6.0435,6.0467,6.0465,6.0576,6.0589,6.0479,6.048,6.0481,0,6.0534,6.0551,6.053,6.0534,6.0527,6.0534,6.0536,6.0504,6.0507,6.0497,6.051,6.0514,6.0515,6.0528,6.0509,6.0511,6.0498,6.0537,6.0498,6.0506,6.0499,6.0498,6.0499,6.0545,6.0546,6.0547,6.0548,0,6.0628,6.0615,6.0617,6.0616,6.0618,6.0616,6.0611,6.0617,6.0583,6.0588,6.0594,6.0595,6.0598,6.0602,6.06,6.0592,6.0565,6.0561,6.0568,6.0577,6.0585,6.0581,6.0461,6.0558,6.0557,6.0557,6.0556,6.0556,6.0701,6.0714,6.0701,6.0705,6.0698,6.0694,6.0704,6.0688,6.0692,6.0691,6.0673,6.0683,6.0672,6.0667,6.0661,6.0669,6.0651,6.0661,6.0664,6.0667,6.0673,6.0584,6.0668,6.0668,6.0668,6.0668,6.0667,0,6.0793,6.0783,6.0787,6.0781,6.0785,6.0758,6.0751,6.0756,6.0765,6.0757,6.0759,6.0767,6.0771,6.0752,6.0754,6.0764,6.0751,6.0765,6.0764,6.0763,6.0689,6.0682,6.0775,6.0775,6.0775,6.0775,6.0775,6.0775,6.0841,6.0862,6.0847,6.0864,6.0853,6.0862,6.086,6.0857,6.085,6.086,6.0863,6.085,6.0839,6.0839,6.0842,6.0836,6.0838,6.0857,6.0847,6.0778,6.0768,6.0758,6.0751,6.0857,6.0858,6.092,6.0921,6.0921]}]]